PGT8KC EGKK-EDDF

Flight info

Callsign PGT8KC
Flight time 0h 59m
Altitude 35000
Route DVR UL9 KONAN UL607 KOK DCT REMBA UL607 SPI T180 NIVNU T847 IMCOM
Aircraft A21N/M-SDE3FGHIRWY/LB1

Departure

Time 2026-05-07 19:49
Airport London Gatwick Airport (EGKK)

Arrival

Time 2026-05-07 20:49
Airport Frankfurt Main Airport (EDDF)
Time Latitude Longitude Altitude Speed Heading
2026-05-07 18:52 51.15503 -0.16771 210 ft 0 kts 348°
2026-05-07 19:29 51.15500 -0.16771 202 ft 2 kts 348°
2026-05-07 19:29 51.15475 -0.16764 197 ft 4 kts 350°
2026-05-07 19:30 51.15453 -0.16751 219 ft 3 kts 298°
2026-05-07 19:30 51.15445 -0.16716 207 ft 4 kts 273°
2026-05-07 19:30 51.15448 -0.16674 211 ft 4 kts 253°
2026-05-07 19:30 51.15452 -0.16656 209 ft 0 kts 257°
2026-05-07 19:38 51.15451 -0.16660 202 ft 3 kts 257°
2026-05-07 19:38 51.15452 -0.16755 209 ft 11 kts 282°
2026-05-07 19:39 51.15440 -0.16898 206 ft 18 kts 256°
2026-05-07 19:39 51.15414 -0.17082 207 ft 14 kts 257°
2026-05-07 19:39 51.15384 -0.17211 213 ft 11 kts 252°
2026-05-07 19:39 51.15362 -0.17323 209 ft 10 kts 249°
2026-05-07 19:40 51.15314 -0.17384 210 ft 10 kts 224°
2026-05-07 19:40 51.15293 -0.17516 207 ft 12 kts 251°
2026-05-07 19:40 51.15275 -0.17646 206 ft 14 kts 258°
2026-05-07 19:40 51.15250 -0.17823 207 ft 17 kts 257°
2026-05-07 19:41 51.15223 -0.18017 208 ft 20 kts 257°
2026-05-07 19:41 51.15198 -0.18201 210 ft 18 kts 257°
2026-05-07 19:41 51.15171 -0.18419 213 ft 20 kts 259°
2026-05-07 19:41 51.15143 -0.18632 214 ft 20 kts 257°
2026-05-07 19:42 51.15110 -0.18876 209 ft 24 kts 258°
2026-05-07 19:42 51.15074 -0.19147 208 ft 25 kts 258°
2026-05-07 19:42 51.15037 -0.19414 207 ft 24 kts 257°
2026-05-07 19:42 51.15002 -0.19671 207 ft 23 kts 257°
2026-05-07 19:43 51.14967 -0.19921 206 ft 23 kts 257°
2026-05-07 19:43 51.14933 -0.20169 205 ft 22 kts 258°
2026-05-07 19:43 51.14900 -0.20408 212 ft 22 kts 257°
2026-05-07 19:43 51.14867 -0.20641 210 ft 21 kts 257°
2026-05-07 19:44 51.14837 -0.20864 207 ft 20 kts 258°
2026-05-07 19:44 51.14808 -0.21076 210 ft 19 kts 258°
2026-05-07 19:44 51.14771 -0.21270 202 ft 18 kts 259°
2026-05-07 19:44 51.14712 -0.21397 209 ft 15 kts 176°
2026-05-07 19:45 51.14636 -0.21331 209 ft 11 kts 160°
2026-05-07 19:45 51.14620 -0.21325 205 ft 0 kts 168°
2026-05-07 19:46 51.14615 -0.21323 207 ft 5 kts 168°
2026-05-07 19:47 51.14545 -0.21270 209 ft 13 kts 142°
2026-05-07 19:47 51.14517 -0.21151 205 ft 11 kts 79°
2026-05-07 19:47 51.14527 -0.21076 211 ft 0 kts 78°
2026-05-07 19:48 51.14536 -0.21009 210 ft 27 kts 78°
2026-05-07 19:48 51.14631 -0.20324 211 ft 96 kts 77°
2026-05-07 19:49 51.14815 -0.18993 211 ft 147 kts 77°
2026-05-07 19:49 51.15055 -0.17279 580 ft 159 kts 78°
2026-05-07 19:49 51.15286 -0.15560 1269 ft 160 kts 79°
2026-05-07 19:49 51.15520 -0.13750 1659 ft 176 kts 80°
2026-05-07 19:50 51.15783 -0.11723 1867 ft 198 kts 79°
2026-05-07 19:50 51.16079 -0.09446 2056 ft 222 kts 79°
2026-05-07 19:50 51.16413 -0.06898 2393 ft 246 kts 79°
2026-05-07 19:50 51.16769 -0.04193 3196 ft 252 kts 79°
2026-05-07 19:51 51.17130 -0.01446 4084 ft 255 kts 78°
2026-05-07 19:51 51.17498 0.01349 4847 ft 260 kts 79°
2026-05-07 19:51 51.17872 0.04192 5607 ft 266 kts 79°
2026-05-07 19:51 51.18246 0.07109 5846 ft 269 kts 82°
2026-05-07 19:52 51.18258 0.10082 5899 ft 268 kts 96°
2026-05-07 19:52 51.18073 0.13035 5927 ft 268 kts 96°
2026-05-07 19:52 51.17947 0.14999 6071 ft 271 kts 96°
2026-05-07 19:52 51.17754 0.17994 6905 ft 273 kts 96°
2026-05-07 19:53 51.17559 0.21036 7657 ft 279 kts 96°
2026-05-07 19:53 51.17362 0.24141 8385 ft 284 kts 96°
2026-05-07 19:53 51.17163 0.27309 9115 ft 290 kts 96°
2026-05-07 19:53 51.16964 0.30536 9834 ft 295 kts 96°
2026-05-07 19:54 51.16760 0.33909 10156 ft 316 kts 96°
2026-05-07 19:54 51.16542 0.37518 10359 ft 337 kts 96°
2026-05-07 19:54 51.16315 0.41286 10913 ft 345 kts 96°
2026-05-07 19:54 51.16088 0.45119 11611 ft 349 kts 96°
2026-05-07 19:55 51.15864 0.48987 12342 ft 352 kts 96°
2026-05-07 19:55 51.15644 0.52885 13077 ft 355 kts 96°
2026-05-07 19:55 51.15425 0.56826 13777 ft 359 kts 96°
2026-05-07 19:55 51.15204 0.60799 14416 ft 362 kts 96°
2026-05-07 19:56 51.14980 0.64820 15054 ft 366 kts 96°
2026-05-07 19:56 51.14752 0.68877 15686 ft 370 kts 96°
2026-05-07 19:56 51.14520 0.72980 16319 ft 374 kts 96°
2026-05-07 19:56 51.14284 0.77129 16947 ft 378 kts 96°
2026-05-07 19:57 51.14044 0.81306 17568 ft 381 kts 96°
2026-05-07 19:57 51.13799 0.85538 17933 ft 385 kts 96°
2026-05-07 19:57 51.13553 0.89781 18026 ft 385 kts 96°
2026-05-07 19:57 51.13328 0.94030 18098 ft 386 kts 93°
2026-05-07 19:58 51.13280 0.98324 18623 ft 390 kts 91°
2026-05-07 19:58 51.13273 1.02655 19169 ft 393 kts 91°
2026-05-07 19:58 51.13286 1.07024 19696 ft 396 kts 90°
2026-05-07 19:58 51.13309 1.11419 20215 ft 399 kts 90°
2026-05-07 19:59 51.13332 1.15850 20725 ft 402 kts 90°
2026-05-07 19:59 51.13350 1.20320 21228 ft 405 kts 91°
2026-05-07 19:59 51.13359 1.24811 21732 ft 408 kts 91°
2026-05-07 19:59 51.13357 1.29358 22231 ft 411 kts 91°
2026-05-07 20:00 51.13349 1.33921 22717 ft 414 kts 91°
2026-05-07 20:00 51.13337 1.38523 23195 ft 417 kts 91°
2026-05-07 20:00 51.13324 1.43153 23655 ft 420 kts 91°
2026-05-07 20:00 51.13315 1.47825 24053 ft 423 kts 91°
2026-05-07 20:01 51.13304 1.52525 24438 ft 426 kts 91°
2026-05-07 20:01 51.13290 1.57261 24830 ft 428 kts 91°
2026-05-07 20:01 51.13266 1.62016 25219 ft 430 kts 93°
2026-05-07 20:01 51.12847 1.66738 25585 ft 431 kts 103°
2026-05-07 20:02 51.12218 1.71421 25973 ft 434 kts 103°
2026-05-07 20:02 51.11578 1.76127 26365 ft 436 kts 104°
2026-05-07 20:02 51.10929 1.80856 26728 ft 438 kts 104°
2026-05-07 20:02 51.10272 1.85608 27097 ft 441 kts 104°
2026-05-07 20:03 51.09608 1.90397 27466 ft 444 kts 104°
2026-05-07 20:03 51.08937 1.95215 27816 ft 447 kts 104°
2026-05-07 20:03 51.08260 2.00063 28189 ft 450 kts 104°
2026-05-07 20:03 51.07576 2.04944 28556 ft 453 kts 104°
2026-05-07 20:04 51.06890 2.09835 28900 ft 455 kts 104°
2026-05-07 20:04 51.06197 2.14760 29238 ft 457 kts 104°
2026-05-07 20:04 51.05498 2.19712 29558 ft 460 kts 104°
2026-05-07 20:04 51.04795 2.24683 29876 ft 462 kts 104°
2026-05-07 20:05 51.04089 2.29673 30183 ft 464 kts 104°
2026-05-07 20:05 51.03378 2.34688 30447 ft 466 kts 104°
2026-05-07 20:05 51.02659 2.39722 30701 ft 469 kts 104°
2026-05-07 20:05 51.01929 2.44802 30965 ft 471 kts 104°
2026-05-07 20:06 51.01197 2.49876 31280 ft 472 kts 104°
2026-05-07 20:06 51.00471 2.54900 31701 ft 471 kts 104°
2026-05-07 20:06 50.99737 2.59962 32104 ft 470 kts 104°
2026-05-07 20:06 50.99002 2.65031 32509 ft 469 kts 104°
2026-05-07 20:07 50.98269 2.70070 32900 ft 469 kts 104°
2026-05-07 20:07 50.97531 2.75123 33284 ft 468 kts 104°
2026-05-07 20:07 50.96793 2.80148 33672 ft 468 kts 104°
2026-05-07 20:07 50.96053 2.85169 34043 ft 467 kts 104°
2026-05-07 20:08 50.95310 2.90192 34355 ft 467 kts 104°
2026-05-07 20:08 50.94568 2.95201 34654 ft 467 kts 104°
2026-05-07 20:08 50.93821 3.00217 34953 ft 466 kts 104°
2026-05-07 20:08 50.93071 3.05241 35059 ft 465 kts 104°
2026-05-07 20:09 50.91591 3.15134 35082 ft 459 kts 105°
2026-05-07 20:10 50.89370 3.29856 35069 ft 458 kts 105°
2026-05-07 20:10 50.87864 3.39715 35078 ft 458 kts 105°
2026-05-07 20:11 50.86360 3.49506 35079 ft 458 kts 105°
2026-05-07 20:11 50.84848 3.59296 35076 ft 458 kts 105°
2026-05-07 20:12 50.83335 3.69078 35076 ft 457 kts 105°
2026-05-07 20:12 50.81813 3.78843 35072 ft 457 kts 105°
2026-05-07 20:13 50.80287 3.88601 35070 ft 457 kts 105°
2026-05-07 20:13 50.78746 3.98338 35072 ft 456 kts 105°
2026-05-07 20:14 50.77197 4.08062 35074 ft 456 kts 105°
2026-05-07 20:14 50.75642 4.17785 35079 ft 456 kts 105°
2026-05-07 20:15 50.74079 4.27504 35081 ft 456 kts 105°
2026-05-07 20:15 50.72508 4.37226 35083 ft 457 kts 105°
2026-05-07 20:16 50.70929 4.46936 35084 ft 456 kts 105°
2026-05-07 20:16 50.69346 4.56640 35088 ft 456 kts 105°
2026-05-07 20:17 50.67758 4.66322 35084 ft 456 kts 106°
2026-05-07 20:17 50.66160 4.76014 35084 ft 457 kts 106°
2026-05-07 20:18 50.64545 4.85706 35085 ft 457 kts 106°
2026-05-07 20:18 50.62927 4.95379 35088 ft 457 kts 106°
2026-05-07 20:19 50.61301 5.05070 35091 ft 457 kts 106°
2026-05-07 20:19 50.59668 5.14742 35087 ft 457 kts 106°
2026-05-07 20:20 50.58035 5.24364 35093 ft 457 kts 106°
2026-05-07 20:20 50.56376 5.34089 35097 ft 457 kts 106°
2026-05-07 20:21 50.54708 5.43739 35093 ft 457 kts 107°
2026-05-07 20:21 50.53032 5.53387 35095 ft 457 kts 106°
2026-05-07 20:22 50.51358 5.63027 35096 ft 457 kts 107°
2026-05-07 20:22 50.49673 5.72650 35088 ft 457 kts 107°
2026-05-07 20:23 50.48257 5.80668 34931 ft 462 kts 107°
2026-05-07 20:23 50.47391 5.85556 34691 ft 465 kts 107°
2026-05-07 20:23 50.46526 5.90453 34454 ft 466 kts 107°
2026-05-07 20:23 50.45384 5.96954 34085 ft 466 kts 106°
2026-05-07 20:24 50.44797 6.00288 33330 ft 472 kts 106°
2026-05-07 20:24 50.43912 6.05281 32398 ft 476 kts 107°
2026-05-07 20:24 50.43019 6.10296 31562 ft 477 kts 107°
2026-05-07 20:24 50.42127 6.15269 31055 ft 471 kts 107°
2026-05-07 20:25 50.41234 6.20203 30444 ft 469 kts 107°
2026-05-07 20:25 50.40344 6.25116 29779 ft 467 kts 107°
2026-05-07 20:25 50.39463 6.29989 29188 ft 462 kts 107°
2026-05-07 20:25 50.38590 6.34815 28596 ft 457 kts 107°
2026-05-07 20:26 50.37726 6.39572 28014 ft 452 kts 107°
2026-05-07 20:26 50.36866 6.44293 27444 ft 447 kts 107°
2026-05-07 20:26 50.36072 6.48972 26870 ft 443 kts 102°
2026-05-07 20:26 50.35675 6.53730 26349 ft 438 kts 96°
2026-05-07 20:27 50.35383 6.58469 25812 ft 434 kts 96°
2026-05-07 20:27 50.35088 6.63092 25304 ft 430 kts 96°
2026-05-07 20:27 50.34789 6.67728 24791 ft 426 kts 96°
2026-05-07 20:27 50.34487 6.72368 24302 ft 421 kts 96°
2026-05-07 20:28 50.34191 6.76903 23831 ft 416 kts 96°
2026-05-07 20:28 50.33908 6.81337 23339 ft 412 kts 96°
2026-05-07 20:28 50.33441 6.85712 22884 ft 404 kts 105°
2026-05-07 20:28 50.32527 6.89823 22452 ft 396 kts 115°
2026-05-07 20:29 50.31374 6.93697 22029 ft 390 kts 116°
2026-05-07 20:29 50.30232 6.97522 21588 ft 385 kts 116°
2026-05-07 20:29 50.29096 7.01338 21157 ft 380 kts 116°
2026-05-07 20:29 50.28001 7.05018 20729 ft 375 kts 116°
2026-05-07 20:30 50.26906 7.08699 20304 ft 372 kts 116°
2026-05-07 20:30 50.25817 7.12350 19881 ft 368 kts 116°
2026-05-07 20:30 50.24735 7.15966 19427 ft 366 kts 116°
2026-05-07 20:30 50.23654 7.19565 18996 ft 363 kts 116°
2026-05-07 20:31 50.22584 7.23129 18559 ft 361 kts 116°
2026-05-07 20:31 50.21515 7.26671 18085 ft 359 kts 116°
2026-05-07 20:31 50.20453 7.30182 17636 ft 356 kts 116°
2026-05-07 20:31 50.19413 7.33669 17218 ft 352 kts 114°
2026-05-07 20:32 50.18482 7.37191 16777 ft 349 kts 112°
2026-05-07 20:32 50.17637 7.40731 16363 ft 346 kts 110°
2026-05-07 20:32 50.16834 7.44258 15959 ft 344 kts 110°
2026-05-07 20:32 50.16039 7.47767 15534 ft 342 kts 110°
2026-05-07 20:33 50.15235 7.51261 15113 ft 341 kts 111°
2026-05-07 20:33 50.14425 7.54717 14714 ft 339 kts 111°
2026-05-07 20:33 50.13607 7.58158 14306 ft 338 kts 111°
2026-05-07 20:33 50.12785 7.61583 13895 ft 336 kts 111°
2026-05-07 20:34 50.11816 7.64876 13441 ft 333 kts 122°
2026-05-07 20:34 50.10438 7.67738 13019 ft 329 kts 133°
2026-05-07 20:34 50.09032 7.70595 12633 ft 338 kts 118°
2026-05-07 20:34 50.08355 7.74082 12248 ft 340 kts 95°
2026-05-07 20:35 50.08586 7.77731 11873 ft 338 kts 73°
2026-05-07 20:35 50.09308 7.81219 11493 ft 337 kts 73°
2026-05-07 20:35 50.09963 7.84713 11122 ft 335 kts 73°
2026-05-07 20:35 50.10607 7.88198 10861 ft 333 kts 73°
2026-05-07 20:36 50.11211 7.91676 10623 ft 332 kts 80°
2026-05-07 20:36 50.11176 7.95216 10370 ft 324 kts 103°
2026-05-07 20:36 50.10321 7.98388 10155 ft 312 kts 124°
2026-05-07 20:36 50.08924 8.00814 9640 ft 295 kts 143°
2026-05-07 20:37 50.07147 8.02320 8894 ft 291 kts 163°
2026-05-07 20:37 50.05194 8.02965 8744 ft 283 kts 171°
2026-05-07 20:37 50.03254 8.03543 8748 ft 285 kts 170°
2026-05-07 20:37 50.01303 8.04029 8741 ft 284 kts 181°
2026-05-07 20:38 49.99396 8.03393 8737 ft 281 kts 208°
2026-05-07 20:38 49.97887 8.01529 8538 ft 277 kts 234°
2026-05-07 20:38 49.97000 7.98933 8281 ft 269 kts 248°
2026-05-07 20:38 49.96318 7.96272 8020 ft 262 kts 249°
2026-05-07 20:39 49.95670 7.93656 7749 ft 257 kts 250°
2026-05-07 20:39 49.95034 7.91076 7362 ft 252 kts 250°
2026-05-07 20:39 49.94424 7.88612 7139 ft 240 kts 250°
2026-05-07 20:39 49.93843 7.86266 6923 ft 224 kts 249°
2026-05-07 20:40 49.93056 7.84222 6740 ft 221 kts 225°
2026-05-07 20:40 49.91782 7.82954 6538 ft 219 kts 198°
2026-05-07 20:40 49.90275 7.82755 6331 ft 220 kts 169°
2026-05-07 20:40 49.88932 7.83813 6074 ft 221 kts 128°
2026-05-07 20:41 49.88382 7.86014 5630 ft 224 kts 92°
2026-05-07 20:41 49.88472 7.88352 5627 ft 217 kts 77°
2026-05-07 20:41 49.88893 7.90608 5482 ft 218 kts 69°
2026-05-07 20:41 49.89466 7.92885 5365 ft 233 kts 66°
2026-05-07 20:42 49.90099 7.95212 5239 ft 234 kts 66°
2026-05-07 20:42 49.90743 7.97529 5118 ft 233 kts 65°
2026-05-07 20:42 49.91386 7.99833 5007 ft 233 kts 65°
2026-05-07 20:42 49.92030 8.02143 5012 ft 234 kts 65°
2026-05-07 20:43 49.92677 8.04467 5019 ft 234 kts 65°
2026-05-07 20:43 49.93340 8.06855 5020 ft 250 kts 66°
2026-05-07 20:43 49.93979 8.09400 5013 ft 255 kts 69°
2026-05-07 20:43 49.94586 8.11996 5012 ft 256 kts 69°
2026-05-07 20:44 49.95209 8.14579 4988 ft 256 kts 68°
2026-05-07 20:44 49.95839 8.17164 4724 ft 255 kts 68°
2026-05-07 20:44 49.96463 8.19724 4393 ft 252 kts 68°
2026-05-07 20:44 49.97075 8.22243 4047 ft 242 kts 68°
2026-05-07 20:45 49.97651 8.24616 3759 ft 231 kts 68°
2026-05-07 20:45 49.98214 8.26935 3438 ft 227 kts 68°
2026-05-07 20:45 49.98756 8.29173 3118 ft 214 kts 69°
2026-05-07 20:45 49.99258 8.31248 2853 ft 201 kts 69°
2026-05-07 20:46 49.99736 8.33226 2572 ft 187 kts 69°
2026-05-07 20:46 50.00187 8.35092 2327 ft 182 kts 69°
2026-05-07 20:46 50.00624 8.36901 2080 ft 174 kts 69°
2026-05-07 20:46 50.01030 8.38585 1859 ft 159 kts 69°
2026-05-07 20:47 50.01399 8.40113 1645 ft 145 kts 69°
2026-05-07 20:47 50.01744 8.41546 1446 ft 140 kts 69°
2026-05-07 20:47 50.02082 8.42948 1262 ft 138 kts 69°
2026-05-07 20:47 50.02419 8.44354 1070 ft 138 kts 69°
2026-05-07 20:48 50.02756 8.45747 895 ft 138 kts 69°
2026-05-07 20:48 50.03089 8.47136 718 ft 137 kts 69°
2026-05-07 20:48 50.03422 8.48515 519 ft 136 kts 69°
2026-05-07 20:48 50.03747 8.49888 361 ft 135 kts 69°
2026-05-07 20:49 50.04046 8.51121 350 ft 101 kts 69°
2026-05-07 20:49 50.04222 8.51865 366 ft 48 kts 69°
2026-05-07 20:49 50.04331 8.52318 363 ft 42 kts 69°
2026-05-07 20:49 50.04392 8.52698 371 ft 30 kts 94°
2026-05-07 20:50 50.04376 8.52971 370 ft 9 kts 99°
2026-05-07 20:50 50.04375 8.52974 371 ft 0 kts 99°
2026-05-07 20:52 50.04374 8.52983 372 ft 5 kts 99°
2026-05-07 20:53 50.04360 8.53119 371 ft 18 kts 98°
2026-05-07 20:53 50.04356 8.53302 374 ft 16 kts 74°
2026-05-07 20:53 50.04389 8.53458 375 ft 17 kts 71°
2026-05-07 20:53 50.04407 8.53664 376 ft 20 kts 84°
2026-05-07 20:54 50.04416 8.53814 375 ft 21 kts 85°
2026-05-07 20:54 50.04432 8.54050 378 ft 22 kts 84°
2026-05-07 20:54 50.04448 8.54309 366 ft 28 kts 85°
2026-05-07 20:54 50.04427 8.54598 351 ft 26 kts 116°
2026-05-07 20:55 50.04310 8.54773 356 ft 22 kts 154°
2026-05-07 20:55 50.04177 8.54847 360 ft 17 kts 161°
2026-05-07 20:55 50.04081 8.54901 359 ft 13 kts 159°
2026-05-07 20:55 50.04013 8.54930 361 ft 8 kts 191°
2026-05-07 20:56 50.03982 8.54886 360 ft 5 kts 235°
2026-05-07 20:56 50.03971 8.54853 365 ft 0 kts 244°
2026-05-07 20:56 50.03970 8.54850 365 ft 1 kts 244°
2026-05-07 20:57 50.03967 8.54840 351 ft 2 kts 244°
2026-05-07 20:57 50.03961 8.54835 341 ft 0 kts 204°
2026-05-07 20:57 50.03960 8.54835 341 ft 1 kts 203°
2026-05-07 20:58 50.03954 8.54837 365 ft 0 kts 163°